| time (UTC) | temp F | wind direction | speed MPH | gust MPH | rain 1hr in | rain 24hr in | rain mn in | humidity % | barometer mb |
| 20260904024120 | 62 | 0.0 | 0.0 | 0.00 | 0.00 | 0.00 | 85 | ||
| 20260904022849 | 62 | 91 | 0.0 | 1.0 | 0.00 | 0.00 | 0.00 | 85 | 1012.4 |
| 20260904022600 | 63 | 0.0 | 0.0 | 0.00 | 0.00 | 0.00 | 84 | ||
| 20260904021329 | 63 | 45 | 1.0 | 8.0 | 0.00 | 0.00 | 0.00 | 84 | 1012.4 |
| 20260904020830 | 64 | 0.0 | 0.0 | 0.00 | 0.00 | 0.00 | 84 | ||
| 20260904020058 | 64 | 150 | 0.0 | 1.0 | 0.00 | 0.00 | 0.00 | 84 | 1012.2 |
| 20260904015327 | 65 | 0.0 | 0.0 | 0.00 | 0.00 | 0.00 | 84 | ||
| 20260904014301 | 65 | 118 | 0.0 | 1.0 | 0.00 | 0.00 | 0.00 | 84 | 1011.8 |
| 20260904012329 | 67 | 0.0 | 0.0 | 0.00 | 0.00 | 0.00 | 83 | ||
| 20260904011254 | 67 | 77 | 5.0 | 11.0 | 0.00 | 0.00 | 0.00 | 83 | 1011.5 |
| 20260904010746 | 68 | 0.0 | 0.0 | 0.00 | 0.00 | 0.00 | 80 | ||
| 20260904005821 | 69 | 136 | 2.0 | 9.0 | 0.00 | 0.00 | 0.00 | 80 | 1011.2 |
| 20260904005312 | 71 | 0.0 | 0.0 | 0.00 | 0.00 | 0.00 | 79 | ||
| 20260904004522 | 71 | 243 | 1.0 | 5.0 | 0.00 | 0.00 | 0.00 | 79 | 1011.9 |
| 20260904002734 | 72 | 119 | 0.0 | 0.0 | 0.00 | 0.00 | 0.00 | 79 | 1011.5 |
| 20260904002234 | 72 | 106 | 0.0 | 0.0 | 0.00 | 0.00 | 0.00 | 78 | 1011.3 |
| 20260904001324 | 72 | 106 | 0.0 | 0.0 | 0.00 | 0.00 | 0.00 | 78 | 1011.2 |
| 20260904000822 | 73 | 0.0 | 0.0 | 0.00 | 0.00 | 0.00 | 76 | ||
| 20260904000030 | 73 | 106 | 0.0 | 0.0 | 0.00 | 0.00 | 0.00 | 76 | 1011.1 |
| 20260903234743 | 74 | 226 | 0.0 | 0.0 | 0.00 | 0.00 | 0.00 | 73 | 1010.9 |
| 20260903234012 | 74 | 0.0 | 0.0 | 0.00 | 0.00 | 0.00 | 72 | ||
| 20260903232930 | 74 | 226 | 0.0 | 0.0 | 0.00 | 0.00 | 0.00 | 72 | 1010.7 |
| 20260903232427 | 74 | 226 | 0.0 | 0.0 | 0.00 | 0.00 | 0.00 | 72 | 1010.8 |
| 20260903232157 | 75 | 226 | 0.0 | 0.0 | 0.00 | 0.00 | 0.00 | 71 | 1010.9 |
| 20260903230903 | 75 | 0.0 | 0.0 | 0.00 | 0.00 | 0.00 | 70 | ||
| 20260903225817 | 75 | 226 | 0.0 | 0.0 | 0.00 | 0.00 | 0.00 | 70 | 1010.6 |
| 20260903225315 | 76 | 0.0 | 0.0 | 0.00 | 0.00 | 0.00 | 68 | ||
| 20260903224257 | 76 | 226 | 0.0 | 0.0 | 0.00 | 0.00 | 0.00 | 68 | 1010.2 |
| 20260903223750 | 76 | 0.0 | 0.0 | 0.00 | 0.00 | 0.00 | 67 | ||
| 20260903223332 | 76 | 226 | 0.0 | 0.0 | 0.00 | 0.00 | 0.00 | 67 | 1010.0 |
| 20260903222552 | 77 | 0.0 | 0.0 | 0.00 | 0.00 | 0.00 | 66 | 1009.9 | |
| 20260903221317 | 77 | 226 | 0.0 | 0.0 | 0.00 | 0.00 | 0.00 | 65 | 1009.6 |
| 20260903220810 | 77 | 0.0 | 0.0 | 0.00 | 0.00 | 0.00 | 64 | ||
| 20260903215750 | 77 | 226 | 0.0 | 0.0 | 0.00 | 0.00 | 0.00 | 63 | 1009.7 |
| 20260903215521 | 78 | 0.0 | 0.0 | 0.00 | 0.00 | 0.00 | 62 | ||
| 20260903214324 | 78 | 226 | 1.0 | 2.0 | 0.00 | 0.00 | 0.00 | 62 | 1009.4 |
| 20260903213806 | 78 | 251 | 1.0 | 0.0 | 0.00 | 0.00 | 0.00 | 59 | 1009.4 |
| 20260903212813 | 79 | 245 | 1.0 | 3.0 | 0.00 | 0.00 | 0.00 | 59 | 1009.3 |
| 20260903212252 | 80 | 0.0 | 0.0 | 0.00 | 0.00 | 0.00 | 56 | ||
| 20260903211330 | 80 | 243 | 0.0 | 0.0 | 0.00 | 0.00 | 0.00 | 57 | 1009.1 |
| 20260903210806 | 80 | 0.0 | 0.0 | 0.00 | 0.00 | 0.00 | 56 | ||
| 20260903205740 | 80 | 243 | 0.0 | 1.0 | 0.00 | 0.00 | 0.00 | 56 | 1008.9 |
| 20260903205239 | 81 | 266 | 0.0 | 1.0 | 0.00 | 0.00 | 0.00 | 55 | 1008.8 |
| 20260903204329 | 81 | 266 | 0.0 | 1.0 | 0.00 | 0.00 | 0.00 | 55 | 1008.7 |
| 20260903203814 | 81 | 0.0 | 0.0 | 0.00 | 0.00 | 0.00 | 53 | ||
| 20260903202951 | 81 | 243 | 0.0 | 1.0 | 0.00 | 0.00 | 0.00 | 53 | 1008.5 |
| 20260903202440 | 82 | 0.0 | 0.0 | 0.00 | 0.00 | 0.00 | 51 | ||
| 20260903201543 | 82 | 256 | 1.0 | 3.0 | 0.00 | 0.00 | 0.00 | 51 | 1008.4 |
| 20260903200758 | 83 | 0.0 | 0.0 | 0.00 | 0.00 | 0.00 | 50 | ||
| 20260903195527 | 83 | 0.0 | 0.0 | 0.00 | 0.00 | 0.00 | 50 | ||
| 20260903194255 | 83 | 252 | 1.0 | 2.0 | 0.00 | 0.00 | 0.00 | 50 | 1008.2 |
| 20260903194023 | 83 | 0.0 | 0.0 | 0.00 | 0.00 | 0.00 | 50 | ||
| 20260903192926 | 83 | 249 | 1.0 | 2.0 | 0.00 | 0.00 | 0.00 | 50 | 1008.2 |
| 20260903192402 | 83 | 0.0 | 0.0 | 0.00 | 0.00 | 0.00 | 49 | ||
| 20260903191300 | 83 | 312 | 1.0 | 2.0 | 0.00 | 0.00 | 0.00 | 49 | 1007.9 |
| 20260903190747 | 83 | 0.0 | 0.0 | 0.00 | 0.00 | 0.00 | 48 | ||
| 20260903185821 | 83 | 289 | 1.0 | 3.0 | 0.00 | 0.00 | 0.00 | 48 | 1008.1 |
| 20260903185809 | 83 | 0.0 | 0.0 | 0.00 | 0.00 | 0.00 | 48 | ||
| 20260903184742 | 83 | 282 | 1.0 | 3.0 | 0.00 | 0.00 | 0.00 | 48 | 1008.2 |
| 20260903183740 | 83 | 0.0 | 0.0 | 0.00 | 0.00 | 0.00 | 47 | ||
| 20260903182813 | 83 | 251 | 3.0 | 10.0 | 0.00 | 0.00 | 0.00 | 46 | 1008.3 |
| 20260903182256 | 84 | 0.0 | 0.0 | 0.00 | 0.00 | 0.00 | 46 | ||
| 20260903181327 | 84 | 293 | 2.0 | 8.0 | 0.00 | 0.00 | 0.00 | 46 | 1008.4 |
| 20260903180813 | 83 | 0.0 | 0.0 | 0.00 | 0.00 | 0.00 | 46 | ||
| 20260903175847 | 83 | 251 | 2.0 | 5.0 | 0.00 | 0.00 | 0.00 | 46 | 1008.5 |
| 20260903175337 | 83 | 0.0 | 0.0 | 0.00 | 0.00 | 0.00 | 46 | ||
| 20260903174305 | 83 | 230 | 3.0 | 10.0 | 0.00 | 0.00 | 0.00 | 45 | 1008.8 |
| 20260903173748 | 85 | 0.0 | 0.0 | 0.00 | 0.00 | 0.00 | 44 | ||
| 20260903173010 | 85 | 311 | 2.0 | 12.0 | 0.00 | 0.00 | 0.00 | 43 | 1008.7 |
| 20260903172239 | 86 | 0.0 | 0.0 | 0.00 | 0.00 | 0.00 | 44 | ||
| 20260903171325 | 86 | 355 | 2.0 | 5.0 | 0.00 | 0.00 | 0.00 | 44 | 1009.0 |
| 20260903170814 | 85 | 0.0 | 0.0 | 0.00 | 0.00 | 0.00 | 45 | ||
| 20260903165738 | 85 | 236 | 3.0 | 7.0 | 0.00 | 0.00 | 0.00 | 45 | 1009.2 |
| 20260903165235 | 84 | 0.0 | 0.0 | 0.00 | 0.00 | 0.00 | 44 | ||
| 20260903164237 | 84 | 295 | 2.0 | 8.0 | 0.00 | 0.00 | 0.00 | 46 | 1009.5 |
| 20260903163734 | 83 | 303 | 4.0 | 3.0 | 0.00 | 0.00 | 0.00 | 46 | 1009.5 |
| 20260903162830 | 83 | 340 | 4.0 | 11.0 | 0.00 | 0.00 | 0.00 | 47 | 1009.8 |
| 20260903162328 | 84 | 0.0 | 0.0 | 0.00 | 0.00 | 0.00 | 47 | ||
| 20260903161305 | 83 | 326 | 4.0 | 14.0 | 0.00 | 0.00 | 0.00 | 47 | 1009.9 |
| 20260903160751 | 83 | 0.0 | 0.0 | 0.00 | 0.00 | 0.00 | 50 | ||
| 20260903155928 | 83 | 299 | 4.0 | 10.0 | 0.00 | 0.00 | 0.00 | 49 | 1010.7 |
| 20260903155422 | 83 | 317 | 3.0 | 9.0 | 0.00 | 0.00 | 0.00 | 51 | 1010.7 |
| 20260903154918 | 82 | 333 | 2.0 | 4.0 | 0.00 | 0.00 | 0.00 | 54 | 1011.0 |
| 20260903154622 | 82 | 286 | 2.0 | 2.0 | 0.00 | 0.00 | 0.00 | 55 | 1011.0 |
| 20260903153845 | 80 | 0.0 | 0.0 | 0.00 | 0.00 | 0.00 | 55 | ||
| 20260903152811 | 80 | 37 | 2.0 | 5.0 | 0.00 | 0.00 | 0.00 | 56 | 1010.9 |
| 20260903152310 | 80 | 0.0 | 0.0 | 0.00 | 0.00 | 0.00 | 57 | ||
| 20260903151250 | 79 | 2 | 2.0 | 4.0 | 0.00 | 0.00 | 0.00 | 57 | 1011.2 |
| 20260903150750 | 79 | 327 | 3.0 | 4.0 | 0.00 | 0.00 | 0.00 | 57 | 1011.3 |
| 20260903145753 | 79 | 35 | 2.0 | 7.0 | 0.00 | 0.00 | 0.00 | 56 | 1011.7 |
| 20260903145252 | 78 | 0.0 | 0.0 | 0.00 | 0.00 | 0.00 | 57 | ||
| 20260903144332 | 78 | 17 | 2.0 | 8.0 | 0.00 | 0.00 | 0.00 | 57 | 1012.0 |
| 20260903144100 | 77 | 0.0 | 0.0 | 0.00 | 0.00 | 0.00 | 58 | ||
| 20260903142811 | 77 | 72 | 1.0 | 4.0 | 0.00 | 0.00 | 0.00 | 58 | 1012.4 |
| 20260903142309 | 77 | 0.0 | 0.0 | 0.00 | 0.00 | 0.00 | 58 | ||
| 20260903141251 | 77 | 3 | 2.0 | 5.0 | 0.00 | 0.00 | 0.00 | 57 | 1012.5 |
| 20260903140750 | 76 | 0.0 | 0.0 | 0.00 | 0.00 | 0.00 | 58 | ||
| 20260903135326 | 76 | 0.0 | 0.0 | 0.00 | 0.00 | 0.00 | 58 | ||
| 20260903134304 | 76 | 354 | 1.0 | 7.0 | 0.00 | 0.00 | 0.00 | 58 | 1012.8 |
| 20260903133745 | 75 | 0.0 | 0.0 | 0.00 | 0.00 | 0.00 | 59 | ||
| 20260903132818 | 75 | 357 | 1.0 | 5.0 | 0.00 | 0.00 | 0.00 | 60 | 1013.0 |
| 20260903132307 | 74 | 0.0 | 0.0 | 0.00 | 0.00 | 0.00 | 61 | ||
| 20260903131613 | 74 | 326 | 1.0 | 4.0 | 0.00 | 0.00 | 0.00 | 61 | 1013.2 |
| 20260903130833 | 73 | 0.0 | 0.0 | 0.00 | 0.00 | 0.00 | 63 | ||
| 20260903130035 | 73 | 298 | 1.0 | 4.0 | 0.00 | 0.00 | 0.00 | 63 | 1013.5 |
| 20260903125248 | 71 | 0.0 | 0.0 | 0.00 | 0.00 | 0.00 | 67 | ||
| 20260903124226 | 71 | 302 | 0.0 | 1.0 | 0.00 | 0.00 | 0.00 | 68 | 1013.7 |
| 20260903123726 | 69 | 320 | 0.0 | 0.0 | 0.00 | 0.00 | 0.00 | 71 | 1013.7 |
| 20260903123000 | 69 | 321 | 0.0 | 1.0 | 0.00 | 0.00 | 0.00 | 71 | 1013.8 |
| 20260903122227 | 67 | 227 | 0.0 | 0.0 | 0.00 | 0.00 | 0.00 | 74 | 1013.8 |
| 20260903121252 | 67 | 226 | 0.0 | 0.0 | 0.00 | 0.00 | 0.00 | 74 | 1013.9 |
| 20260903120749 | 66 | 0.0 | 0.0 | 0.00 | 0.00 | 0.00 | 76 | ||
| 20260903115928 | 66 | 212 | 0.0 | 0.0 | 0.00 | 0.00 | 0.00 | 76 | 1014.0 |
| 20260903115408 | 65 | 213 | 0.0 | 0.0 | 0.00 | 0.00 | 0.00 | 77 | 1014.0 |
| 20260903114908 | 64 | 213 | 0.0 | 0.0 | 0.00 | 0.00 | 0.00 | 79 | 1014.0 |
| 20260903114331 | 64 | 213 | 0.0 | 0.0 | 0.00 | 0.00 | 0.00 | 79 | 1014.0 |
| 20260903113831 | 63 | 0.0 | 0.0 | 0.00 | 0.00 | 0.00 | 80 | ||
| 20260903112758 | 62 | 213 | 0.0 | 0.0 | 0.00 | 0.00 | 0.00 | 81 | 1014.0 |
| 20260903112516 | 61 | 0.0 | 0.0 | 0.00 | 0.00 | 0.00 | 82 | ||
| 20260903111314 | 61 | 213 | 0.0 | 0.0 | 0.00 | 0.00 | 0.00 | 82 | 1014.0 |
| 20260903110803 | 60 | 0.0 | 0.0 | 0.00 | 0.00 | 0.00 | 83 | ||
| 20260903105831 | 60 | 213 | 0.0 | 0.0 | 0.00 | 0.00 | 0.00 | 83 | 1013.9 |
| 20260903105320 | 60 | 0.0 | 0.0 | 0.00 | 0.00 | 0.00 | 83 | ||
| 20260903104354 | 60 | 165 | 0.0 | 0.0 | 0.00 | 0.00 | 0.00 | 83 | 1013.6 |
| 20260903104341 | 60 | 0.0 | 0.0 | 0.00 | 0.00 | 0.00 | 82 | ||
| 20260903102810 | 60 | 85 | 0.0 | 1.0 | 0.00 | 0.00 | 0.00 | 82 | 1013.3 |
| 20260903102308 | 59 | 0.0 | 0.0 | 0.00 | 0.00 | 0.00 | 82 | ||
| 20260903101243 | 59 | 214 | 0.0 | 0.0 | 0.00 | 0.00 | 0.00 | 82 | 1013.0 |
| 20260903100741 | 59 | 0.0 | 0.0 | 0.00 | 0.00 | 0.00 | 82 | ||
| 20260903095928 | 59 | 214 | 0.0 | 1.0 | 0.00 | 0.00 | 0.00 | 82 | 1012.8 |
| 20260903095416 | 59 | 214 | 0.0 | 1.0 | 0.00 | 0.00 | 0.00 | 82 | 1012.8 |
| 20260903095136 | 59 | 227 | 0.0 | 1.0 | 0.00 | 0.00 | 0.00 | 83 | 1012.7 |
| 20260903094347 | 58 | 226 | 3.0 | 5.0 | 0.00 | 0.00 | 0.00 | 83 | 1012.7 |
| 20260903093833 | 58 | 0.0 | 0.0 | 0.00 | 0.00 | 0.00 | 84 | ||
| 20260903092821 | 58 | 220 | 6.0 | 8.0 | 0.00 | 0.00 | 0.00 | 83 | 1012.1 |
| 20260903092319 | 58 | 0.0 | 0.0 | 0.00 | 0.00 | 0.00 | 84 | ||
| 20260903091320 | 58 | 205 | 4.0 | 12.0 | 0.00 | 0.00 | 0.00 | 83 | 1011.2 |
| 20260903090756 | 57 | 0.0 | 0.0 | 0.00 | 0.00 | 0.00 | 84 | ||
| 20260903085825 | 57 | 215 | 1.0 | 6.0 | 0.00 | 0.00 | 0.00 | 83 | 1009.9 |
| 20260903085537 | 58 | 0.0 | 0.0 | 0.00 | 0.00 | 0.00 | 83 | ||
| 20260903084522 | 58 | 185 | 1.0 | 2.0 | 0.00 | 0.00 | 0.00 | 83 | 1009.1 |
| 20260903083751 | 57 | 0.0 | 0.0 | 0.00 | 0.00 | 0.00 | 85 | ||
| 20260903082825 | 57 | 233 | 1.0 | 5.0 | 0.00 | 0.00 | 0.00 | 85 | 1008.9 |
| 20260903082326 | 56 | 0.0 | 0.0 | 0.00 | 0.00 | 0.00 | 86 | ||
| 20260903081539 | 56 | 216 | 1.0 | 5.0 | 0.00 | 0.00 | 0.00 | 86 | 1008.9 |
| 20260903080806 | 56 | 0.0 | 0.0 | 0.00 | 0.00 | 0.00 | 86 | ||
| 20260903075545 | 56 | 213 | 1.0 | 6.0 | 0.00 | 0.00 | 0.00 | 86 | 1008.9 |
| 20260903075034 | 56 | 211 | 0.0 | 0.0 | 0.00 | 0.00 | 0.00 | 87 | |
| 20260903074304 | 56 | 211 | 1.0 | 3.0 | 0.00 | 0.00 | 0.00 | 87 | 1009.0 |
| 20260903073754 | 56 | 0.0 | 0.0 | 0.00 | 0.00 | 0.00 | 88 | ||
| 20260903072831 | 56 | 185 | 1.0 | 5.0 | 0.00 | 0.00 | 0.00 | 88 | 1009.2 |
| 20260903072328 | 55 | 0.0 | 0.0 | 0.00 | 0.00 | 0.00 | 90 | ||
| 20260903071537 | 55 | 231 | 0.0 | 0.0 | 0.00 | 0.00 | 0.00 | 90 | 1009.6 |
| 20260903070807 | 55 | 209 | 0.0 | 0.0 | 0.00 | 0.00 | 0.00 | 90 | 1009.6 |
| 20260903065755 | 55 | 216 | 0.0 | 0.0 | 0.00 | 0.00 | 0.00 | 90 | 1009.9 |
| 20260903065520 | 55 | 0.0 | 0.0 | 0.00 | 0.00 | 0.00 | 91 | ||
| 20260903064231 | 55 | 214 | 0.0 | 4.0 | 0.00 | 0.00 | 0.00 | 91 | 1010.1 |
| 20260903063727 | 54 | 219 | 0.0 | 0.0 | 0.00 | 0.00 | 0.00 | 92 | 1010.0 |
| 20260903062822 | 54 | 208 | 0.0 | 0.0 | 0.00 | 0.00 | 0.00 | 92 | 1010.2 |
| 20260903062550 | 53 | 0.0 | 0.0 | 0.00 | 0.00 | 0.00 | 92 | ||
| 20260903061300 | 53 | 204 | 0.0 | 0.0 | 0.00 | 0.00 | 0.00 | 91 | 1010.5 |
| 20260903060758 | 52 | 0.0 | 0.0 | 0.00 | 0.00 | 0.00 | 91 | ||
| 20260903055745 | 52 | 190 | 0.0 | 0.0 | 0.00 | 0.00 | 0.00 | 91 | 1010.8 |
| 20260903055244 | 53 | 84 | 0.0 | 0.0 | 0.00 | 0.00 | 0.00 | 91 | 1010.8 |
| 20260903054334 | 53 | 84 | 0.0 | 0.0 | 0.00 | 0.00 | 0.00 | 91 | 1011.0 |
| 20260903053831 | 53 | 0.0 | 0.0 | 0.00 | 0.00 | 0.00 | 91 | ||
| 20260903052828 | 53 | 84 | 0.0 | 0.0 | 0.00 | 0.00 | 0.00 | 91 | 1011.3 |
| 20260903052327 | 52 | 0.0 | 0.0 | 0.00 | 0.00 | 0.00 | 91 | ||
| 20260903051254 | 53 | 83 | 0.0 | 0.0 | 0.00 | 0.00 | 0.00 | 91 | 1011.6 |
| 20260903050747 | 53 | 0.0 | 0.0 | 0.00 | 0.00 | 0.00 | 91 | ||
| 20260903045825 | 53 | 83 | 0.0 | 0.0 | 0.00 | 0.00 | 0.00 | 91 | 1011.8 |
| 20260903045324 | 53 | 0.0 | 0.0 | 0.00 | 0.00 | 0.00 | 91 | ||
| 20260903044256 | 53 | 83 | 0.0 | 0.0 | 0.00 | 0.00 | 0.00 | 91 | 1012.1 |
| 20260903043739 | 53 | 0.0 | 0.0 | 0.00 | 0.00 | 0.00 | 91 | ||
| 20260903042516 | 54 | 83 | 0.0 | 0.0 | 0.00 | 0.00 | 0.00 | 91 | 1012.6 |
| 20260903042018 | 54 | 0.0 | 1.0 | 0.00 | 0.00 | 0.00 | 91 | ||
| 20260903041333 | 54 | 83 | 0.0 | 1.0 | 0.00 | 0.00 | 0.00 | 91 | 1012.6 |
| 20260903040817 | 54 | 0.0 | 0.0 | 0.00 | 0.00 | 0.00 | 91 | ||
| 20260903035754 | 54 | 81 | 0.0 | 0.0 | 0.00 | 0.00 | 0.00 | 91 | 1013.1 |
| 20260903035242 | 54 | 0.0 | 0.0 | 0.00 | 0.00 | 0.00 | 90 | ||
| 20260903033731 | 55 | 0.0 | 0.0 | 0.00 | 0.00 | 0.00 | 90 | ||
| 20260903032820 | 55 | 77 | 0.0 | 1.0 | 0.00 | 0.00 | 0.00 | 90 | 1013.6 |
| 20260903032318 | 55 | 0.0 | 0.0 | 0.00 | 0.00 | 0.00 | 90 | ||
| 20260903031344 | 55 | 75 | 0.0 | 0.0 | 0.00 | 0.00 | 0.00 | 90 | 1013.7 |
| 20260903030845 | 56 | 0.0 | 0.0 | 0.00 | 0.00 | 0.00 | 89 | ||
| 20260903025812 | 56 | 75 | 0.0 | 0.0 | 0.00 | 0.00 | 0.01 | 89 | 1013.8 |
| 20260903025252 | 56 | 0.0 | 0.0 | 0.00 | 0.00 | 0.01 | 89 | ||
| 20260903024232 | 57 | 74 | 0.0 | 2.0 | 0.00 | 0.00 | 0.01 | 89 | 1014.0 |